Theta_e
301 293 290 289 293 296 298 297 296 297 297 296 295 294 293 292 293 296 297 299 299 296 295 295 295 294 295 296 298 299 300 299 299 299 300 300 299 300 300 302 302 302 303 305 305 305 304 305 305 304 304 304 304 304 304 304 305 305 306 306 307 307 308 309 309 311 310 309 310 310 309 309 310 310 310 311 311 311 310 308 308 307 308 306 305 305
302 292 293 296 297 298 299 300 299 298 298 296 294 293 292 293 291 295 296 299 300 295 292 294 293 293 295 297 299 300 299 298 298 298 299 299 298 300 301 301 301 302 303 303 302 303 303 302 303 303 303 302 302 302 303 303 303 304 305 304 305 306 306 307 308 309 310 309 308 308 307 308 308 308 308 308 309 309 310 308 306 305 305 305 305 304
293 291 296 299 301 301 300 299 299 297 296 296 293 291 290 291 294 297 297 299 296 294 291 292 291 292 295 297 298 298 298 299 300 300 299 299 299 300 300 300 300 300 300 300 301 300 300 300 300 301 301 301 302 302 302 302 303 303 303 304 304 305 304 304 306 307 307 309 309 309 308 308 308 309 308 308 307 308 308 307 306 305 305 305 304 304
290 294 298 301 301 299 298 298 298 297 296 292 291 288 287 292 291 288 295 296 297 294 291 292 291 292 296 298 298 299 299 299 302 301 301 301 300 300 300 299 298 298 298 297 297 298 298 298 298 298 298 299 300 300 300 301 301 303 302 303 303 304 304 304 304 303 305 306 307 307 305 306 306 303 304 305 305 306 306 306 305 303 303 303 302 302
294 299 303 300 301 298 297 297 296 294 291 294 294 291 291 292 293 292 292 294 295 296 296 292 290 290 294 293 294 297 299 299 299 299 299 299 300 300 300 299 299 297 297 296 296 296 297 296 296 296 297 298 298 299 299 299 300 301 301 302 302 303 303 303 303 303 303 305 304 305 303 302 302 301 300 301 301 303 303 303 303 302 302 302 301 301
296 301 302 298 299 299 297 294 295 295 290 292 294 295 294 295 293 294 294 292 288 287 292 292 282 284 291 293 295 297 297 297 297 296 296 297 298 298 297 297 298 297 297 296 296 296 296 296 296 296 296 296 297 297 298 299 299 299 299 300 301 302 302 302 302 303 302 302 302 301 300 299 298 298 299 297 298 300 300 301 300 301 301 301 300 300
297 300 300 298 297 296 296 294 295 297 290 289 290 297 298 296 294 293 292 289 282 281 290 293 282 281 290 291 293 296 296 295 295 295 295 296 296 296 296 296 296 296 296 296 296 295 295 295 295 295 295 296 296 297 298 298 298 298 298 298 299 299 300 302 301 302 301 300 300 300 300 299 298 298 299 300 301 300 300 302 301 301 300 300 300 299
297 297 295 297 297 295 294 291 296 296 291 287 295 296 295 294 292 291 291 289 286 290 292 292 289 282 283 288 295 296 296 293 293 293 294 295 295 295 295 295 295 295 295 294 294 294 294 294 294 294 294 295 296 296 297 297 297 297 297 297 298 298 298 299 300 300 301 300 299 299 299 299 298 298 298 299 299 299 299 299 300 300 299 299 300 299
297 294 295 294 293 291 292 295 299 298 293 292 294 295 293 293 292 291 289 286 286 285 282 287 290 282 281 289 295 295 292 291 291 292 293 294 294 294 294 294 294 294 294 294 294 293 294 293 293 293 293 294 295 296 296 296 297 297 297 296 297 297 297 298 298 299 299 300 299 299 299 298 299 299 299 299 299 298 298 298 298 297 297 298 298 298
298 297 298 298 293 291 295 295 296 299 293 296 295 295 295 293 293 291 285 285 284 282 280 285 289 281 282 290 291 292 290 289 290 292 293 293 293 293 292 293 293 294 294 293 293 293 293 293 293 293 293 293 294 295 296 296 296 296 296 296 296 296 296 297 297 298 298 298 298 298 298 297 297 298 299 298 298 298 298 296 297 296 296 295 296 296
297 296 298 296 295 297 294 292 294 297 295 295 296 292 291 291 288 287 287 285 283 278 281 287 290 287 279 287 290 290 291 291 291 292 293 293 292 292 292 291 292 292 293 293 292 292 293 293 293 292 291 291 292 293 293 294 294 295 295 295 295 295 296 296 296 296 296 297 297 297 296 296 296 296 297 296 296 296 296 297 296 295 295 295 295 295
296 295 294 296 300 297 296 293 293 295 295 294 289 286 287 285 285 285 284 284 277 277 284 288 290 290 278 282 290 290 292 293 292 291 291 290 290 290 290 291 291 291 291 291 291 290 290 290 291 291 290 290 290 291 292 292 293 293 293 294 293 294 295 295 295 295 295 296 295 295 295 295 295 295 296 295 295 295 295 295 295 295 295 294 294 294
289 291 294 298 297 297 293 291 292 291 292 290 287 285 282 280 282 278 280 274 278 277 283 285 288 284 284 288 292 294 292 293 293 293 291 289 289 289 289 289 289 289 289 289 288 288 288 288 288 289 289 289 289 289 290 291 292 292 292 292 292 292 293 294 295 294 294 294 294 295 294 294 294 294 294 294 294 294 294 294 295 294 293 294 293 292
288 292 294 294 296 297 296 287 285 284 286 287 284 281 280 276 276 273 277 280 280 283 284 284 287 281 287 289 293 292 291 292 290 290 290 289 288 288 288 288 288 288 288 287 287 287 287 287 288 288 288 288 288 288 289 290 290 291 291 291 291 291 292 293 294 294 294 294 294 294 294 294 294 293 293 294 294 294 294 294 294 294 294 294 293 293
282 283 290 292 289 296 295 294 292 292 288 287 289 288 283 281 277 272 276 274 275 279 282 286 280 279 279 284 289 291 291 290 290 290 289 289 289 288 288 287 287 286 286 287 286 286 286 287 287 287 287 287 287 287 288 288 289 289 289 290 290 290 291 291 292 292 293 293 294 294 294 293 293 293 293 293 293 293 293 294 294 294 294 293 294 293
287 286 292 297 293 295 293 296 298 294 289 289 290 291 285 282 286 281 281 279 278 279 278 280 279 282 285 290 291 291 290 289 289 289 289 288 288 288 287 287 286 286 286 286 285 286 286 286 286 287 287 287 287 287 287 288 288 289 289 289 288 289 289 290 291 291 291 291 292 292 292 293 293 292 292 292 292 293 293 293 293 293 293 294 293 294
285 282 291 296 294 293 292 294 296 296 280 286 287 282 285 290 289 282 282 283 281 280 278 282 282 285 291 290 289 289 288 287 287 287 287 287 287 286 286 286 285 285 285 284 285 284 285 285 286 287 287 287 288 288 287 287 288 288 288 287 287 287 288 289 290 290 291 290 290 290 290 291 291 292 291 291 291 291 292 292 292 292 292 293 293 294
282 286 293 293 291 292 291 292 293 294 294 287 281 285 291 292 290 284 276 280 277 275 277 282 278 280 281 276 287 286 285 286 286 285 286 286 285 285 285 285 285 285 285 285 285 285 285 285 285 285 286 287 287 287 287 287 288 287 287 287 286 286 286 287 288 288 289 289 289 289 289 289 290 290 290 291 291 291 291 290 290 291 291 291 292 292
292 282 289 293 293 293 292 293 291 294 295 289 286 293 283 281 280 283 280 272 272 272 273 276 280 280 282 283 285 284 284 284 285 285 285 285 284 284 284 284 285 286 287 287 286 286 286 285 285 284 285 286 286 287 287 288 288 287 287 287 287 287 287 287 288 287 288 288 289 289 288 288 289 289 289 289 290 289 289 289 290 289 290 290 290 290
292 281 284 292 292 292 292 290 281 286 292 294 293 287 290 284 282 280 281 279 279 274 275 274 280 277 286 285 287 285 286 285 285 285 284 285 285 285 284 285 285 285 285 285 285 286 285 285 285 286 285 286 287 287 288 289 289 288 288 288 288 288 287 287 287 287 287 288 287 287 287 287 288 288 288 288 289 287 288 288 289 288 287 289 289 289
284 289 278 287 292 291 282 286 283 286 282 284 284 282 285 284 286 284 281 280 278 275 275 275 273 279 285 288 287 287 288 288 287 286 286 287 287 287 286 286 286 285 285 285 285 285 286 286 285 285 284 285 285 285 287 288 287 288 287 287 287 287 287 286 286 287 287 288 287 286 285 285 286 286 287 286 287 286 287 287 288 287 287 287 287 287
285 284 282 284 284 282 285 293 293 292 292 289 288 284 285 282 280 278 277 284 280 279 276 276 274 280 288 290 289 288 288 288 288 287 286 286 286 286 285 285 285 285 285 284 285 284 284 284 285 284 283 284 284 283 284 286 286 286 286 286 286 286 285 286 287 287 287 287 287 286 286 286 286 286 285 284 284 285 285 285 286 286 286 286 286 286
290 286 282 281 283 284 289 292 293 293 292 291 290 285 289 285 284 279 275 278 282 280 281 280 277 280 287 289 289 288 289 288 288 288 286 286 286 285 285 285 286 286 286 287 286 286 286 286 286 285 285 285 284 285 283 283 284 284 284 284 284 284 284 285 285 286 286 286 286 285 285 284 284 284 283 283 284 283 284 284 284 285 285 285 285 286
292 282 279 282 286 288 291 292 292 293 293 289 289 289 287 284 285 283 282 282 279 281 279 278 276 281 287 288 288 288 287 287 287 287 287 286 285 285 284 285 285 285 286 286 286 286 286 285 285 285 285 285 285 285 285 286 286 286 285 285 284 284 284 284 284 284 283 283 283 284 283 283 283 283 283 283 282 282 282 283 283 283 283 283 284 284
282 282 282 278 279 281 282 284 285 287 287 283 282 285 287 287 285 283 282 281 277 280 281 278 273 279 285 286 285 287 286 285 285 286 285 284 284 283 283 284 284 284 284 284 284 285 284 283 282 282 283 283 283 284 284 285 285 285 285 285 285 285 286 285 285 283 282 282 281 281 281 281 282 281 282 282 282 282 283 283 283 283 283 283 283 283
285 282 280 275 274 272 271 271 273 277 280 283 283 284 285 285 284 281 278 280 277 281 279 275 275 282 286 286 286 285 285 283 283 284 284 283 283 283 283 284 283 283 283 283 282 283 282 282 282 281 282 282 282 282 282 282 282 282 283 283 284 284 284 284 283 283 283 281 281 281 281 281 281 281 281 281 281 281 282 283 282 282 283 283 283 283
281 282 280 280 278 276 278 279 283 284 281 277 280 281 282 285 285 284 283 279 276 279 278 279 280 280 282 285 285 285 284 283 283 283 283 283 283 283 283 283 283 283 282 282 282 281 281 280 281 282 282 282 282 282 281 281 281 281 281 281 281 281 282 282 281 281 280 280 280 280 280 281 281 282 281 281 281 281 280 280 280 280 280 281 281 281
283 281 283 283 282 283 284 284 285 285 281 283 282 282 283 283 282 279 279 277 282 278 274 280 281 278 280 283 284 284 285 285 285 284 283 283 283 283 283 283 286 283 282 282 282 281 281 281 281 281 281 281 281 281 280 281 281 281 281 281 280 280 280 282 280 280 280 280 280 279 280 280 280 280 281 281 281 281 281 280 279 279 279 279 279 280
280 278 279 280 279 283 284 284 285 284 283 283 282 281 280 281 280 278 277 280 280 276 274 278 280 278 280 282 284 284 284 283 284 283 283 283 283 283 282 281 281 281 282 281 281 281 280 281 281 281 281 281 281 281 280 280 280 280 280 280 280 280 280 280 281 280 280 280 280 280 280 280 280 280 280 280 280 280 281 281 280 281 280 280 280 281
280 277 281 280 278 279 281 281 282 281 280 280 280 281 281 281 280 280 279 281 280 278 280 280 280 280 282 283 284 284 283 282 282 282 282 281 281 281 281 281 280 281 280 281 281 281 280 280 280 280 280 280 280 280 280 280 280 280 280 280 280 280 280 280 280 280 279 279 280 280 280 280 280 281 280 280 280 280 281 281 281 281 280 280 280 280
280 274 281 273 274 273 278 281 280 280 280 277 279 280 280 280 280 280 280 279 279 279 279 279 278 278 283 283 282 283 282 281 281 281 280 281 280 279 279 279 279 279 280 280 280 280 281 280 280 280 280 280 280 281 282 282 282 281 280 280 280 280 280 280 280 279 278 279 279 279 279 280 280 280 280 280 280 280 280 281 281 281 280 280 280 280
280 274 277 275 272 273 276 274 275 273 273 272 274 276 277 277 275 277 276 279 277 276 277 277 276 277 279 281 282 281 280 279 278 279 279 279 278 278 278 278 278 279 279 279 279 279 279 279 279 279 279 279 280 280 280 281 281 281 280 280 280 280 280 280 279 279 279 279 279 280 280 280 280 280 280 280 280 280 280 280 279 280 280 280 280 280
276 275 273 273 272 272 276 274 273 274 274 272 274 277 278 278 279 279 280 280 280 280 276 274 275 275 278 281 278 278 276 277 278 278 278 278 278 278 278 278 278 279 279 279 279 278 279 280 280 280 279 279 281 281 282 282 282 281 281 281 280 279 279 279 279 279 279 279 279 279 280 280 280 279 279 280 280 280 280 280 279 279 279 278 279 279
276 275 273 275 272 272 274 272 275 272 267 269 280 283 281 278 278 276 276 278 279 280 274 278 275 277 277 276 275 276 276 276 278 279 280 279 278 278 278 277 278 279 279 279 279 279 279 280 280 280 280 280 281 282 282 282 282 281 280 279 278 278 279 279 279 278 278 278 279 279 279 279 279 279 279 279 279 279 279 279 279 279 279 279 279 278
276 277 276 279 274 272 274 272 271 265 267 278 280 281 281 280 279 277 278 278 275 273 275 274 275 275 277 277 277 278 278 278 278 278 278 279 279 279 278 278 279 278 278 279 279 279 279 280 280 279 280 280 280 280 281 281 279 278 279 278 278 278 278 278 277 278 278 278 278 278 278 278 278 278 278 279 279 278 278 278 278 279 279 279 278 278
278 278 278 277 277 275 273 271 265 265 274 275 276 277 277 278 276 276 274 276 277 277 278 277 278 279 278 277 277 277 277 277 277 278 279 280 280 280 279 279 279 278 279 279 279 279 279 280 279 278 279 279 279 278 278 278 277 277 276 277 276 276 276 276 276 276 277 277 277 277 277 277 277 277 277 277 277 277 277 277 277 277 278 278 278 278
280 279 278 273 278 269 271 270 269 275 274 276 276 277 276 274 274 273 266 272 273 275 278 277 279 276 276 276 276 277 277 277 275 276 279 279 280 281 281 280 279 279 279 279 280 279 279 279 278 278 278 277 277 276 276 276 276 276 276 275 276 275 275 275 275 275 275 275 275 276 276 276 275 275 275 275 275 275 275 275 276 276 277 276 276 276
281 277 278 274 272 276 270 268 269 268 265 270 276 277 279 279 278 277 272 267 274 274 276 277 274 272 273 275 276 277 277 273 271 273 277 278 279 280 279 280 280 280 280 279 279 278 278 278 277 277 276 275 275 275 275 275 274 274 273 273 274 273 273 273 273 273 273 274 274 274 274 274 273 273 273 273 273 273 273 273 273 273 274 273 273 274
275 276 275 275 272 273 270 267 266 265 266 270 270 274 276 276 277 274 269 266 272 270 272 274 272 272 273 274 275 275 271 267 269 274 277 278 278 279 279 279 279 279 278 278 278 277 277 277 277 276 275 274 273 273 273 273 272 272 271 272 272 271 271 271 271 272 272 272 272 272 272 272 272 271 270 269 269 269 269 269 269 271 271 271 272 272
269 270 271 270 271 272 270 267 264 266 264 270 272 275 276 278 278 272 262 262 274 273 274 274 274 275 275 275 275 274 271 267 270 274 277 278 279 278 279 278 278 277 277 277 277 277 277 276 274 274 273 272 272 272 271 271 271 269 270 269 270 269 269 269 270 271 271 270 270 269 269 269 268 267 266 265 265 266 266 267 268 268 268 269 269 269
266 266 270 268 270 270 272 268 269 269 272 272 274 276 277 276 273 263 262 266 274 273 275 275 275 275 275 275 275 271 274 276 276 277 277 277 277 278 278 278 278 277 276 276 276 278 274 274 274 273 272 272 271 271 270 270 268 267 268 268 267 267 268 269 269 268 268 267 267 266 266 266 265 264 264 264 264 264 265 265 265 265 265 265 266 267
267 265 267 269 267 267 267 266 267 270 274 272 276 278 278 273 263 264 271 277 275 275 277 276 275 276 276 276 275 275 276 277 277 277 276 276 277 278 277 276 276 275 276 276 277 275 273 272 272 271 270 270 270 269 268 267 266 266 266 266 266 266 267 267 266 266 265 264 264 263 263 263 263 263 262 262 263 262 262 263 263 263 263 264 264 264
268 265 263 265 268 270 269 266 266 262 273 276 276 273 276 267 269 275 275 277 276 277 277 276 277 277 277 276 276 276 276 276 276 276 276 277 277 277 276 275 275 274 274 273 272 273 272 270 270 269 269 269 268 268 267 265 264 264 265 264 265 266 265 265 264 264 263 262 262 262 261 261 261 261 261 261 261 261 260 261 261 261 262 261 262 262
273 263 265 268 272 263 268 265 266 273 276 275 275 268 271 277 278 277 276 272 277 277 277 277 277 276 276 276 275 275 275 275 275 276 276 276 276 275 275 274 274 273 273 272 271 271 269 268 268 267 267 267 266 266 265 264 263 263 263 263 264 264 264 263 262 262 261 261 260 260 260 260 260 260 260 260 260 260 259 259 259 260 260 261 261 261
274 270 272 268 272 268 265 270 275 279 279 278 278 277 277 277 278 277 275 276 275 277 277 276 276 276 276 276 276 276 275 275 275 275 275 275 275 274 274 273 273 272 271 270 270 268 267 266 265 265 265 265 265 264 264 263 262 262 261 262 263 262 262 261 261 260 259 259 259 259 259 259 259 259 259 259 259 258 259 259 259 259 259 260 260 260
275 276 275 274 273 276 275 276 277 276 277 276 278 279 278 278 279 277 276 276 277 278 278 276 276 276 277 276 275 274 275 275 275 275 275 274 274 274 273 272 271 271 269 268 266 266 265 264 263 263 263 263 263 263 262 262 261 259 261 262 262 262 261 260 259 259 259 259 259 259 259 258 258 259 259 259 259 259 259 259 259 259 259 259 260 260
275 276 275 272 274 270 264 276 274 275 277 277 277 278 279 279 279 279 278 278 278 278 278 277 277 277 276 275 275 275 275 275 275 274 274 273 272 272 271 271 270 268 267 265 266 264 263 262 262 262 261 261 262 262 261 260 260 261 261 261 261 261 260 259 259 259 258 258 258 258 258 258 258 258 259 259 259 259 259 259 259 259 259 259 259 259
271 277 273 274 273 272 270 275 275 277 277 277 277 276 277 277 278 279 279 279 278 278 277 276 275 274 274 274 274 274 274 274 273 272 272 272 271 270 270 269 267 267 266 266 265 263 261 261 261 260 260 260 261 261 260 260 260 260 260 260 261 260 259 259 259 258 258 258 258 258 258 258 259 259 258 258 258 258 258 259 259 258 258 258 258 258
275 277 269 271 271 273 275 276 277 277 277 277 278 278 278 279 279 279 279 277 276 275 274 274 274 274 274 274 274 273 271 271 272 271 270 270 269 269 268 267 266 265 265 264 262 261 261 261 260 259 259 259 260 259 259 259 259 259 260 260 260 259 258 258 258 258 258 258 258 258 258 258 258 258 257 257 258 258 258 258 258 258 259 260 260 260
275 272 276 272 268 269 270 273 275 269 270 275 277 278 279 280 279 279 277 275 275 274 274 273 273 273 273 272 271 271 268 269 270 269 268 268 267 266 266 265 264 263 262 262 262 260 260 259 258 258 258 259 259 259 258 258 259 260 260 260 259 259 258 258 258 258 257 258 258 258 258 258 257 257 257 257 257 257 258 261 264 264 261 261 265 268
275 276 275 272 272 270 276 277 277 277 276 277 278 278 278 277 277 276 276 275 275 275 274 273 272 270 270 269 270 269 268 268 268 267 266 266 266 265 264 263 262 262 261 261 260 259 258 258 258 258 257 258 258 258 258 258 259 259 259 259 259 259 258 258 257 257 257 258 257 258 258 257 257 257 257 257 257 257 257 257 259 265 267 267 267 268
Wind_Speed
5 4 4 5 7 11 11 12 12 11 10 10 9 7 7 7 6 7 10 9 5 7 5 6 6 7 9 9 12 14 13 11 9 10 12 10 5 4 5 6 10 15 11 11 15 16 15 14 14 13 13 13 14 14 13 11 10 9 7 5 5 3 3 3 3 4 4 3 2 1 2 1 1 1 1 1 1 2 3 4 4 5 6 5 5 5
1 4 6 10 12 13 12 9 8 9 8 9 7 6 8 4 10 6 9 7 8 2 2 4 6 5 7 12 19 16 9 10 9 9 11 7 3 6 8 10 11 10 10 13 15 15 15 14 14 12 12 14 15 14 15 13 12 11 10 9 4 4 4 3 3 4 3 2 2 2 1 1 1 3 2 2 2 2 1 3 4 4 5 5 6 5
3 7 9 14 13 10 9 8 8 8 8 5 5 4 5 7 8 9 10 5 1 3 6 5 7 6 10 18 18 14 10 9 10 8 5 9 12 9 10 9 13 14 14 15 15 14 14 14 14 12 12 12 13 13 14 13 13 13 11 10 8 6 5 5 5 5 3 2 1 2 1 2 0 1 2 3 2 3 2 2 4 5 6 6 7 7
4 6 18 14 9 8 7 7 7 8 5 4 4 4 7 5 5 3 2 6 8 4 6 7 10 6 12 17 17 11 8 7 2 11 13 12 13 13 14 13 13 13 13 14 13 13 12 13 13 13 13 12 11 12 13 13 12 10 11 10 10 10 9 7 7 7 6 5 6 6 7 6 7 3 3 4 3 2 1 2 1 2 4 4 5 5
8 6 2 2 2 5 7 5 5 4 5 3 5 5 5 5 5 6 4 6 5 6 6 4 4 4 11 4 3 4 5 3 8 12 15 13 11 10 12 14 13 13 12 12 12 12 12 14 14 12 11 10 12 12 12 12 12 10 12 11 10 10 11 9 8 8 6 5 5 5 5 4 3 3 3 2 1 0 1 0 1 3 3 4 4 5
10 9 7 4 3 3 3 4 6 4 4 5 6 8 7 5 5 4 6 7 4 3 1 3 5 3 5 6 9 8 6 2 8 14 9 12 10 11 11 11 11 11 11 11 12 11 11 11 11 12 12 13 12 12 11 9 11 12 12 12 11 9 9 10 8 8 7 5 3 2 1 0 1 1 1 2 4 4 4 5 3 3 4 4 4 4
4 3 2 2 3 2 2 4 6 1 5 2 3 1 1 1 2 3 4 4 3 1 3 3 1 7 2 8 7 10 8 6 8 11 8 7 10 10 10 10 10 10 9 10 10 10 13 12 12 13 13 11 12 10 8 10 11 13 12 11 11 10 9 9 9 8 8 7 6 5 4 4 3 4 2 1 1 5 6 5 4 5 4 4 5 4
4 3 3 1 1 3 3 6 5 7 4 4 1 1 1 1 2 3 2 2 6 4 5 4 5 7 6 3 10 11 10 10 10 7 8 7 9 12 10 10 10 9 9 9 10 11 10 12 12 12 11 11 11 9 10 12 12 13 13 12 11 9 10 10 9 9 9 7 7 7 6 5 5 4 4 4 5 3 2 2 4 4 4 4 4 4
1 3 2 2 3 3 6 6 1 6 5 2 0 3 1 1 2 2 2 4 4 5 7 5 6 1 5 4 9 9 1 11 7 7 6 7 10 11 11 9 9 10 10 10 10 11 11 11 11 9 10 9 11 12 12 11 11 11 11 12 11 12 10 10 11 10 9 8 8 7 7 7 7 6 6 7 6 5 1 0 1 3 3 4 4 4
1 2 4 5 5 6 6 4 2 6 5 0 1 0 0 0 1 3 3 3 4 1 9 2 6 4 7 7 8 2 6 8 7 6 6 6 9 9 10 10 8 7 9 10 10 9 9 9 9 8 7 10 10 9 9 10 10 11 10 13 13 13 10 9 11 10 10 9 9 8 7 7 6 7 6 5 6 5 6 2 1 2 2 3 4 4
2 0 2 1 5 4 2 1 3 4 2 1 0 1 3 3 4 3 2 2 1 4 9 9 11 9 3 3 3 2 3 9 9 6 7 8 9 9 9 9 8 8 8 9 9 8 8 8 9 8 11 9 10 9 10 11 10 10 11 10 12 11 10 11 11 10 10 9 9 8 8 7 7 7 6 7 6 7 6 7 5 2 4 3 5 5
4 2 1 3 4 0 3 1 2 1 0 1 1 1 4 6 2 1 1 3 0 5 2 3 9 10 5 3 2 4 4 9 12 11 9 9 8 9 6 7 8 8 7 7 8 8 8 9 11 11 12 11 11 12 12 10 10 10 10 10 11 12 11 10 10 11 11 9 9 8 8 8 7 7 6 7 6 6 5 6 6 7 3 2 3 4
1 6 5 2 2 6 1 0 0 1 1 2 1 1 1 3 2 2 3 1 5 6 2 3 3 2 7 5 7 4 7 7 6 9 11 11 10 9 8 7 7 6 5 7 8 7 8 9 10 11 11 11 12 11 11 12 10 10 10 11 11 11 10 10 9 10 9 10 9 9 8 7 8 8 7 6 6 6 7 7 7 7 7 6 3 2
4 1 4 4 3 4 4 5 2 1 3 4 4 4 2 1 2 4 4 4 3 0 1 3 3 1 2 4 2 6 10 10 12 12 11 11 10 9 8 6 5 5 5 6 6 7 7 8 8 9 9 9 9 10 10 10 10 9 10 11 11 10 9 9 9 9 9 9 9 9 8 7 6 7 6 7 7 7 7 7 7 7 7 7 5 5
7 6 3 5 3 6 6 8 6 1 6 8 3 8 7 5 1 4 3 5 4 4 0 0 3 5 2 2 5 10 10 11 11 11 10 10 9 8 7 5 5 5 6 5 6 7 7 7 7 7 7 8 8 10 10 10 10 9 9 10 11 10 10 10 9 8 10 8 8 8 8 9 8 8 7 7 6 7 6 7 7 7 7 7 6 6
8 9 1 4 1 4 7 4 1 1 1 3 2 0 1 6 1 8 3 3 2 3 5 1 4 2 1 5 7 8 11 11 8 10 8 8 7 6 6 5 5 4 4 4 5 6 6 6 6 6 7 7 7 8 9 10 10 10 10 10 10 9 8 9 9 8 8 8 7 7 8 9 8 7 6 6 7 7 7 7 7 8 8 8 8 7
1 3 1 2 3 1 1 2 0 1 2 1 3 4 4 1 1 3 4 4 1 3 9 4 5 6 1 6 9 7 11 9 8 7 7 6 5 4 5 4 4 3 3 3 4 4 4 4 5 6 6 6 6 6 7 8 8 8 9 9 10 10 10 11 10 9 8 8 8 9 9 9 9 9 8 7 8 8 8 7 8 8 8 8 8 9
2 2 1 3 3 0 1 1 2 2 1 5 1 4 1 1 2 1 3 1 3 7 7 5 7 6 2 4 4 5 11 5 6 6 5 6 4 5 4 3 3 3 3 2 3 3 3 4 4 4 5 5 5 5 5 5 5 5 4 6 7 8 10 10 11 11 10 10 9 9 9 8 8 8 8 7 8 7 7 7 7 7 8 8 8 8
4 5 5 0 3 1 2 1 3 2 3 4 3 1 1 2 3 2 1 3 4 6 4 4 8 8 7 6 6 2 8 7 6 5 4 4 4 4 3 3 1 2 1 1 2 2 3 4 4 4 4 4 3 4 3 2 1 2 3 3 4 6 8 8 7 8 8 9 7 7 8 8 8 7 6 6 5 5 6 8 8 8 8 8 8 8
1 2 2 1 1 2 0 1 2 0 2 1 2 2 2 1 3 3 3 3 3 7 4 5 7 6 1 3 4 6 7 6 7 4 4 4 4 4 3 3 3 2 1 0 1 2 2 2 2 2 3 3 5 4 4 3 2 3 3 3 3 4 5 6 7 7 7 7 6 8 8 8 7 8 8 9 8 9 8 6 5 5 6 8 8 8
1 1 4 1 1 1 2 3 5 4 3 1 1 2 1 1 1 1 1 4 5 5 5 6 5 5 1 3 4 7 7 6 6 6 4 3 4 3 3 4 3 3 2 2 1 0 1 1 0 0 1 1 2 3 4 3 3 3 3 3 3 3 3 2 3 2 3 3 3 3 4 5 6 8 7 8 8 8 9 9 9 8 7 5 5 4
0 2 5 3 4 3 4 0 3 3 2 2 2 2 1 1 4 6 10 2 3 5 7 8 11 3 1 2 5 6 5 6 6 6 5 4 5 4 3 2 3 4 4 3 3 3 0 1 0 1 2 3 2 2 2 3 1 2 1 0 1 1 2 1 3 2 3 3 3 3 3 3 4 4 4 5 6 7 7 8 8 9 9 9 9 8
2 0 1 6 5 7 6 8 9 5 4 4 5 4 3 2 1 1 8 5 4 2 0 2 6 4 1 0 5 4 5 4 5 6 6 5 5 5 4 3 3 4 3 4 4 3 4 3 3 3 3 3 3 3 3 3 2 2 2 2 2 1 2 0 2 2 3 3 3 4 3 3 3 3 4 4 5 5 6 6 7 7 7 7 8 8
5 1 2 5 6 8 11 8 5 1 1 2 3 3 3 4 3 6 6 1 3 4 8 5 8 1 1 1 2 5 4 4 3 5 6 5 4 4 5 4 4 3 3 3 5 4 5 4 4 3 3 2 2 1 1 1 1 1 1 1 1 1 1 1 1 1 3 4 4 5 3 3 3 2 3 3 2 2 3 2 2 2 3 4 5 8
0 4 2 1 2 4 6 4 0 4 4 3 1 3 3 4 4 1 0 2 3 6 12 10 8 4 1 1 3 2 4 3 3 1 4 4 3 3 2 2 1 2 1 2 3 3 3 3 2 2 2 1 1 0 1 1 1 2 2 3 3 2 1 2 2 2 3 2 2 3 2 3 2 3 4 4 3 4 4 4 3 4 4 5 5 5
2 2 0 1 4 6 6 4 3 1 1 2 1 2 3 2 4 5 4 2 5 1 5 0 4 5 2 3 4 2 2 1 0 1 1 3 4 4 3 2 2 1 1 1 1 1 1 2 2 1 1 1 1 1 1 2 3 3 3 4 4 4 4 4 3 3 3 4 4 4 3 3 2 3 3 3 3 4 4 5 5 6 6 6 7 7
1 1 1 4 6 9 8 4 1 3 1 3 6 6 9 9 7 6 5 7 10 5 9 8 12 11 13 11 7 4 6 4 5 5 6 5 4 4 4 2 2 1 1 0 0 0 0 0 1 0 0 0 0 1 1 1 2 3 3 4 4 3 2 4 3 4 4 4 4 4 5 5 5 6 6 5 4 4 4 4 4 4 5 5 5 6
1 2 5 5 6 8 9 10 10 9 9 9 9 11 10 9 6 5 7 8 3 7 13 9 11 9 9 10 8 7 5 5 5 6 5 4 4 4 4 3 2 0 1 1 1 1 2 3 3 3 4 3 3 3 3 2 2 2 2 3 4 4 4 4 4 5 5 6 6 5 5 5 5 5 6 6 6 6 5 5 4 4 4 4 4 5
2 4 4 3 3 6 6 9 8 9 8 8 10 10 12 12 9 12 8 5 4 10 14 12 13 14 12 12 12 8 6 1 4 4 4 3 4 4 3 1 2 3 4 4 4 3 4 4 5 5 5 4 3 4 4 4 4 4 4 3 4 4 4 5 4 5 6 7 8 9 8 8 6 5 5 6 5 6 7 7 7 6 6 5 6 6
1 3 5 3 7 9 11 11 7 8 7 8 10 12 13 15 17 11 8 9 11 10 10 11 11 14 12 12 12 8 2 3 3 4 3 3 3 4 3 4 3 3 4 4 4 4 4 4 4 4 4 4 5 5 5 5 5 5 5 5 5 4 5 3 4 4 4 5 6 6 7 8 8 10 9 9 9 8 8 8 9 8 7 8 8 8
2 5 5 2 1 4 7 5 3 7 8 9 9 11 13 14 12 9 11 10 9 11 12 14 15 17 13 9 4 2 3 3 2 2 2 1 4 3 2 1 1 1 3 2 3 4 3 4 4 4 4 5 5 6 6 6 5 5 4 4 5 4 5 3 3 4 4 5 5 5 6 6 7 7 9 10 8 8 9 10 10 9 9 10 9 9
0 3 4 1 5 8 8 4 0 2 2 2 10 17 18 14 13 13 12 7 10 12 11 11 12 12 2 2 1 2 3 3 1 2 2 3 4 3 1 1 1 1 1 2 3 4 5 5 4 4 5 5 5 5 5 5 5 4 4 4 4 4 3 3 4 4 5 5 6 6 7 7 8 9 10 8 9 10 10 8 7 8 9 10 10 10
3 1 1 2 5 8 7 6 2 3 3 8 17 22 15 14 15 13 12 14 14 12 11 11 12 3 3 3 3 1 3 1 1 2 3 3 2 0 1 2 2 1 1 1 3 4 5 5 6 6 6 6 7 8 8 7 7 5 5 4 4 4 5 5 5 6 7 7 6 7 8 8 9 9 9 9 10 10 9 10 10 10 8 9 8 8
2 4 4 2 7 6 4 3 2 1 7 15 2 2 5 6 6 9 10 9 9 9 5 2 3 3 2 2 4 1 3 1 1 1 1 1 1 3 3 4 2 0 1 2 2 3 3 4 4 4 4 4 5 6 5 5 5 4 4 4 5 6 7 8 8 7 8 7 8 9 9 9 8 9 9 9 9 9 10 10 11 11 10 9 8 9
4 3 3 4 4 5 4 3 4 9 16 3 1 5 7 9 7 13 13 12 8 5 3 3 4 4 4 4 3 1 1 2 3 3 1 3 4 4 5 4 1 2 2 1 2 2 3 2 3 4 5 5 5 5 5 6 4 5 6 6 7 7 8 7 8 8 9 10 10 9 8 9 8 9 10 10 10 10 10 10 10 11 11 10 11 12
6 6 2 3 2 2 3 6 9 14 4 0 4 2 2 0 5 4 7 6 8 8 7 7 5 5 5 4 3 3 2 3 3 3 5 5 4 4 3 2 1 2 1 1 0 1 1 2 3 4 3 3 3 4 4 4 5 6 6 6 6 7 7 7 9 10 9 10 10 10 10 10 10 10 11 11 11 11 11 11 11 12 12 11 11 11
6 4 5 5 5 8 8 10 15 10 13 15 13 8 4 6 4 5 5 5 3 2 0 1 0 3 5 4 4 1 2 2 3 5 5 1 2 2 0 0 1 0 1 1 1 1 3 4 4 4 2 3 4 4 4 6 7 7 7 7 6 6 7 8 9 9 10 11 11 11 10 10 10 12 13 12 12 13 13 13 14 13 11 12 13 13
8 10 6 6 6 9 8 8 8 7 11 9 1 1 2 3 4 0 6 5 4 5 4 5 2 5 4 4 1 0 1 2 5 4 1 4 3 2 2 3 1 1 0 3 3 3 4 3 3 3 3 4 5 5 7 7 7 7 7 8 8 8 8 8 9 10 10 11 10 11 11 10 11 12 13 13 13 14 13 13 13 13 12 14 15 16
2 0 3 8 4 4 7 9 8 9 7 4 4 3 1 1 3 2 4 6 1 1 1 6 6 4 3 1 0 1 2 2 5 5 3 2 2 1 1 4 3 1 4 4 3 2 2 3 2 2 4 5 4 6 7 8 7 7 7 8 8 8 9 10 11 10 11 11 11 11 12 12 12 12 12 13 14 14 16 16 15 14 13 13 12 14
4 3 4 4 9 9 7 8 10 3 4 1 4 2 2 2 3 7 5 4 0 2 1 4 6 4 0 1 1 0 3 5 6 7 2 3 2 4 4 5 1 3 3 4 3 2 1 1 4 4 4 5 5 7 9 6 6 6 8 9 8 9 9 11 11 11 12 12 12 11 12 11 11 11 12 14 15 14 14 13 13 13 12 13 11 15
2 1 5 12 11 12 14 9 5 7 3 5 5 4 4 2 3 1 11 5 4 5 2 3 2 2 2 1 2 2 5 7 6 5 4 3 4 5 4 2 4 4 3 3 1 3 4 4 5 4 4 4 6 7 7 5 7 9 9 10 9 9 10 10 11 12 12 12 11 11 11 10 10 13 13 12 12 13 14 11 12 13 14 14 13 13
0 2 3 3 8 9 8 10 11 7 4 2 3 9 5 3 3 10 3 4 7 5 6 4 3 3 3 5 5 6 6 6 5 4 4 4 4 6 0 4 3 3 3 3 6 6 5 4 4 4 4 4 7 6 5 6 9 9 9 9 9 9 10 11 11 11 11 11 12 12 12 12 12 11 11 12 12 12 14 11 11 13 14 12 12 14
7 6 5 6 4 4 5 8 8 9 1 7 3 5 2 4 6 3 2 2 5 7 6 5 5 7 5 5 6 5 5 4 4 4 4 5 5 2 2 3 3 3 3 3 4 6 6 5 5 5 5 5 5 5 6 7 9 9 8 9 11 10 9 9 10 10 11 12 13 13 13 13 13 13 10 11 11 13 14 13 12 13 13 13 14 14
3 3 3 5 6 4 8 10 7 1 4 3 7 5 4 7 7 4 3 3 5 6 6 6 6 6 4 5 4 4 4 4 4 4 4 5 1 1 2 3 3 3 3 5 5 5 5 5 4 6 5 6 5 5 6 7 9 9 9 11 9 9 9 9 10 11 12 12 12 13 13 13 13 12 11 11 11 12 13 14 11 12 9 11 11 13
6 8 6 8 4 6 6 4 1 6 6 5 8 8 6 5 4 5 4 3 4 6 6 6 5 4 4 2 1 3 5 4 4 4 5 4 0 1 3 3 3 3 4 4 4 4 4 6 7 9 9 7 6 6 5 5 8 11 11 10 8 9 10 11 11 12 12 13 13 13 13 13 12 13 12 12 11 12 11 12 11 11 9 9 11 11
4 7 6 5 10 6 4 4 2 4 7 5 5 8 8 8 8 6 5 5 5 7 6 6 4 4 2 2 3 4 5 5 5 5 3 1 1 1 2 3 3 4 4 4 4 5 4 6 5 7 11 11 6 7 4 5 5 10 11 10 9 10 10 11 12 13 14 14 13 13 13 16 15 13 12 13 11 11 11 12 12 11 11 11 12 12
6 8 8 9 7 5 3 2 4 8 9 8 8 6 7 8 9 7 6 7 7 7 6 5 5 4 3 3 4 6 6 5 5 5 2 1 1 1 2 2 3 4 4 4 4 5 5 5 8 9 9 12 8 7 6 5 5 7 9 10 10 10 10 11 12 14 14 14 14 13 13 14 13 12 11 11 10 10 10 11 11 12 12 12 12 13
7 7 10 12 9 8 6 5 9 9 8 8 7 6 8 8 8 8 8 6 6 5 5 5 5 3 3 3 5 5 7 5 4 3 2 1 1 1 2 2 3 3 3 4 4 4 5 5 7 9 9 10 10 8 7 7 7 8 9 9 9 10 11 12 12 13 14 15 14 12 12 12 14 15 12 11 11 11 11 10 11 12 12 12 13 13
4 1 7 3 5 5 5 9 12 10 10 12 10 7 8 9 10 10 9 5 5 5 4 4 4 4 4 5 4 5 4 2 1 1 1 1 1 1 2 2 2 2 3 4 3 4 5 6 7 6 8 10 8 8 8 8 9 8 9 9 9 10 12 13 14 14 15 14 12 12 12 12 12 12 12 12 12 11 11 12 12 13 14 14 12 13
6 13 10 1 2 3 7 11 6 5 8 10 8 12 12 12 11 11 5 4 5 6 6 6 4 3 3 3 4 4 5 3 1 0 1 0 0 1 2 2 2 3 3 3 4 5 5 5 5 8 9 9 8 8 9 9 9 9 8 9 9 10 12 14 14 13 13 12 12 13 12 11 11 12 12 12 12 13 12 14 23 20 16 15 21 30
11 15 9 9 8 10 11 12 9 10 11 11 11 8 6 6 5 5 6 8 7 6 7 6 5 4 4 3 3 4 3 3 1 1 0 0 1 2 2 2 3 4 5 4 6 6 4 5 6 8 9 9 8 8 9 10 11 10 10 9 9 10 12 13 13 12 12 12 12 13 13 13 12 12 11 12 12 12 13 13 12 21 28 27 28 29
Wind_Direction
142 181 181 192 217 227 230 224 231 243 248 259 261 267 274 285 287 284 277 286 285 297 278 294 303 310 307 297 289 272 272 277 288 277 272 267 260 292 39 55 51 61 67 64 56 48 37 30 28 28 24 24 27 24 18 26 30 27 26 63 88 66 71 80 81 93 106 115 95 84 134 161 161 174 139 176 203 140 162 150 155 151 166 169 179 188
124 216 223 217 222 231 240 253 263 274 281 285 295 297 290 292 278 266 297 294 287 282 294 295 298 293 295 290 276 277 286 280 262 261 257 277 2 36 49 46 64 72 62 54 52 45 40 31 27 30 29 23 27 20 20 24 25 19 21 26 45 68 49 55 83 95 91 104 141 136 172 146 156 159 161 203 198 209 140 136 139 144 158 155 175 182
191 221 239 234 232 243 255 262 265 271 274 281 284 305 305 274 273 281 266 269 10 20 281 311 301 294 291 273 272 277 273 265 259 258 342 51 55 52 46 51 62 55 48 42 43 42 37 31 30 30 30 31 28 25 25 21 26 23 19 17 21 42 44 34 43 59 67 50 53 85 50 132 206 113 154 173 182 164 180 158 154 153 165 165 179 185
229 218 241 244 241 254 258 252 264 270 270 266 281 280 253 272 301 306 269 357 345 357 294 289 286 286 274 270 271 271 249 255 320 50 69 64 66 61 53 52 57 57 52 50 42 38 35 36 33 30 30 27 29 29 28 24 24 26 22 18 23 28 25 28 34 31 32 47 47 47 53 36 67 52 29 45 39 61 106 211 158 134 157 172 179 183
231 251 312 22 268 221 248 265 273 280 279 252 226 233 263 271 260 259 309 345 328 295 285 311 288 269 257 285 303 241 237 246 70 75 65 63 62 68 69 62 53 53 54 56 48 40 36 36 33 31 29 28 33 31 29 25 24 24 22 21 27 34 26 17 26 24 22 42 36 41 31 32 21 25 49 55 338 322 176 240 152 204 164 171 173 181
259 264 260 243 231 275 289 281 255 237 285 273 257 246 253 277 303 346 338 352 345 306 348 24 338 229 268 342 321 284 286 297 72 84 73 74 75 67 67 69 68 60 54 53 54 47 43 41 35 34 31 33 33 33 27 26 30 30 27 24 27 34 29 17 13 20 11 34 56 69 82 50 115 241 198 214 214 215 201 209 206 188 185 182 190 183
264 59 57 173 213 210 232 254 256 222 241 239 259 104 337 5 338 315 332 34 301 247 252 36 357 280 221 273 263 264 251 90 83 77 79 85 85 79 72 65 62 66 57 52 48 46 45 39 37 33 31 28 35 31 27 31 33 36 32 28 30 30 24 18 13 16 19 11 17 20 14 16 13 6 298 285 237 199 206 188 190 201 190 193 189 205
194 203 67 9 153 206 237 246 241 194 197 251 172 307 37 355 325 308 314 209 244 264 267 247 195 254 285 242 262 253 243 109 90 84 88 87 85 80 73 67 67 59 60 56 48 44 45 44 42 36 28 27 29 27 30 32 30 33 33 30 29 30 26 20 15 14 16 22 11 7 5 9 2 6 330 332 335 354 91 123 179 166 186 194 193 204
172 173 147 160 184 197 213 221 228 175 176 211 208 41 11 47 317 321 264 258 259 315 288 186 195 284 246 247 242 236 220 95 93 96 91 85 82 76 71 58 58 64 65 61 52 43 41 43 44 39 34 26 28 27 29 30 27 29 32 34 32 32 28 19 18 18 13 18 12 18 15 9 355 359 352 349 345 343 17 95 116 156 179 183 198 201
351 132 191 183 152 208 227 243 285 169 224 104 185 118 127 192 245 212 233 271 301 239 267 210 177 214 282 260 271 144 109 121 121 106 85 72 68 72 80 77 51 45 55 59 58 48 37 40 48 42 40 37 34 30 31 32 30 28 28 32 32 29 27 20 21 21 19 16 17 17 12 10 355 355 349 356 347 344 347 338 214 175 182 179 188 211
234 140 43 215 206 225 115 98 51 32 74 155 328 356 297 247 227 228 202 229 301 245 256 231 204 175 295 277 253 125 145 140 123 108 110 85 77 59 53 65 66 52 43 47 53 48 43 33 39 39 42 33 32 30 32 32 31 28 29 29 34 28 25 22 23 24 26 20 20 17 10 9 5 357 359 4 355 351 352 344 327 240 212 192 191 188
236 87 108 248 247 1 112 71 1 111 14 73 41 23 347 300 215 117 249 144 150 268 257 291 181 184 177 291 60 63 69 130 145 149 129 103 82 83 64 52 57 52 46 44 46 40 37 35 30 30 34 29 25 27 27 27 27 29 27 27 32 28 24 24 22 25 27 24 20 20 12 9 4 3 5 360 355 347 348 339 336 329 338 259 197 174
235 214 211 206 255 184 161 347 49 59 101 110 119 21 335 297 12 275 95 317 217 239 261 13 52 213 234 251 303 323 65 53 87 102 109 105 94 77 69 61 54 51 44 46 42 39 30 33 30 26 23 25 23 25 21 19 21 21 25 26 30 25 20 21 23 28 27 27 22 16 14 12 5 4 2 356 3 354 354 348 344 345 342 339 349 258
252 179 176 202 26 216 148 162 217 348 207 142 172 161 128 282 221 248 240 214 244 198 328 74 46 235 267 266 266 74 66 64 68 71 79 88 89 85 80 66 52 53 53 46 46 42 36 30 26 29 26 23 22 22 23 21 21 17 20 20 26 23 17 18 23 24 25 26 24 19 17 10 6 7 2 0 7 355 354 348 343 340 336 337 330 334
290 283 230 146 244 160 186 205 183 201 153 202 196 152 180 180 212 261 240 241 225 220 238 295 25 226 150 231 103 104 86 82 77 82 83 85 87 89 88 85 68 51 42 37 46 41 38 28 28 30 28 25 21 19 18 21 18 19 18 15 17 17 13 14 18 22 25 21 18 21 19 18 13 9 6 2 2 352 351 344 344 338 336 337 329 335
218 241 284 142 322 145 175 246 11 40 19 199 204 89 28 228 175 247 253 277 305 328 311 224 194 241 332 124 100 97 94 84 85 88 91 86 90 98 89 79 72 60 48 39 40 40 31 27 26 27 27 26 19 19 21 19 15 13 10 9 13 13 8 11 14 21 23 20 16 18 22 20 15 13 13 11 4 359 356 351 353 346 345 341 337 331
200 266 110 303 32 126 185 351 121 130 181 307 76 197 211 4 33 306 318 261 293 311 254 243 285 279 246 116 87 98 92 83 89 92 89 91 98 92 82 75 76 69 68 45 47 45 34 27 29 27 27 19 17 16 24 20 16 14 9 9 8 5 4 7 8 10 14 15 20 18 19 19 16 15 15 11 7 6 3 5 1 358 350 346 344 336
214 253 141 165 249 309 236 357 359 357 99 78 138 243 324 222 112 182 248 256 247 240 263 253 268 277 266 266 130 93 92 102 82 94 88 94 90 79 79 87 84 88 83 86 71 54 47 41 34 22 11 17 4 1 0 14 10 13 14 13 14 7 7 3 5 2 1 5 9 11 15 17 17 13 9 5 10 3 5 8 8 0 1 354 342 339
50 313 245 246 99 287 46 341 335 231 192 180 204 22 94 259 314 266 120 253 254 248 275 203 254 255 248 237 137 151 118 123 127 115 121 104 98 100 105 87 80 69 67 79 78 65 53 40 30 14 6 0 344 345 328 316 328 16 19 12 20 16 11 8 6 358 355 0 0 2 4 3 5 8 9 7 18 13 13 10 3 2 357 348 347 341
347 226 308 69 41 186 80 115 249 292 343 37 80 330 180 112 209 258 186 227 186 262 271 257 257 256 271 1 99 127 123 130 128 134 117 143 134 134 162 146 159 167 141 101 73 78 76 75 53 46 346 344 335 332 323 316 339 21 12 5 8 11 7 8 3 360 354 347 352 357 358 359 1 359 0 359 1 5 8 8 8 3 5 349 340 344
342 202 244 176 160 72 323 166 219 197 225 304 56 289 330 244 199 129 352 236 231 265 240 283 258 264 331 322 93 116 131 142 146 146 161 146 145 139 167 169 170 166 168 162 119 65 87 77 225 291 226 258 280 299 320 335 3 2 14 2 358 4 338 336 303 311 301 319 324 2 354 348 352 351 349 356 358 1 355 354 352 355 355 344 350 346
356 314 246 332 328 230 229 172 109 65 61 136 151 237 209 347 302 258 258 199 218 220 248 242 256 244 92 308 116 118 137 135 146 152 156 168 168 172 171 176 166 166 184 169 182 158 175 174 275 233 268 256 258 276 298 301 336 317 327 324 315 328 302 307 295 311 298 313 320 331 346 343 341 344 338 353 349 357 351 350 348 343 348 349 342 345
119 131 34 268 246 258 270 286 295 305 275 166 139 219 190 133 121 311 263 259 291 228 45 252 281 227 119 50 105 118 108 113 126 141 152 151 151 146 149 155 176 165 160 166 156 175 178 188 206 224 224 227 222 232 239 254 228 235 240 235 234 207 245 247 278 318 315 314 315 310 306 326 322 339 334 349 337 352 340 344 343 343 346 335 331 332
65 151 205 259 255 266 270 271 273 303 143 262 234 237 192 222 204 220 236 264 249 268 270 247 248 228 201 339 101 112 139 125 146 148 151 144 129 143 150 163 180 157 186 162 180 184 195 189 209 213 203 211 223 208 257 258 256 248 237 223 230 274 295 325 305 329 337 328 329 325 314 314 306 327 320 326 295 314 290 281 276 279 305 308 319 329
98 283 155 257 294 299 289 285 329 360 38 59 27 316 359 331 353 322 302 162 241 196 235 246 247 238 272 190 298 118 126 148 160 85 119 131 141 152 161 180 190 189 191 195 177 183 181 187 202 205 201 205 206 213 253 276 289 323 327 341 343 331 313 325 307 343 323 317 304 306 304 301 318 334 333 328 320 327 321 318 320 326 329 328 330 327
121 241 73 201 234 254 254 250 250 85 69 291 246 301 304 315 300 334 305 308 269 203 69 241 275 256 209 192 236 191 157 127 63 167 121 164 172 178 186 202 197 201 197 150 148 131 168 181 172 118 44 53 18 43 358 352 353 349 350 345 340 341 335 330 327 325 326 319 326 311 310 292 300 301 302 295 300 313 322 324 331 331 331 327 329 328
138 331 176 207 223 243 253 282 141 128 127 319 297 292 282 284 274 265 272 261 266 296 284 264 267 283 288 280 266 228 170 202 213 201 199 190 189 171 166 178 183 180 147 89 95 178 45 23 84 106 291 56 304 319 322 315 329 320 328 322 317 312 313 310 328 327 332 321 322 323 322 330 331 330 326 316 297 294 306 300 299 308 306 302 299 299
177 214 237 240 242 253 270 278 291 308 290 276 271 271 276 269 265 250 229 255 343 321 267 257 270 277 271 284 294 304 300 263 209 200 195 175 166 166 178 175 188 306 284 255 286 310 304 297 311 316 300 308 300 300 302 280 275 270 286 305 306 321 331 323 340 334 333 332 331 327 315 309 308 315 312 312 314 314 310 301 291 284 274 278 287 286
156 248 254 258 247 263 262 271 284 289 284 277 271 274 272 272 265 254 255 252 232 238 260 270 277 277 276 273 281 285 294 260 157 152 132 131 139 147 139 158 204 223 237 235 231 231 232 235 236 243 248 255 263 274 273 270 274 275 277 278 283 290 296 296 334 325 329 332 330 327 326 324 321 313 309 306 309 308 307 305 303 301 299 296 293 286
105 271 255 239 260 265 265 265 268 273 281 284 275 269 267 264 263 264 266 247 239 250 259 267 272 273 278 282 295 299 160 108 88 82 93 125 170 159 174 199 214 228 233 237 239 234 229 228 230 231 232 242 242 248 257 261 258 253 244 253 263 271 274 290 288 298 308 306 302 306 314 318 319 319 317 317 310 306 304 304 303 301 300 299 298 299
125 258 116 24 311 275 267 268 254 245 246 263 270 267 261 261 269 272 267 265 277 273 268 273 275 274 273 286 290 99 72 76 92 170 146 151 106 100 103 50 2 359 324 329 321 299 267 241 238 237 242 245 248 248 247 246 245 246 248 250 259 266 264 279 301 304 296 289 287 293 297 301 296 299 303 298 300 298 298 296 296 295 295 298 299 298
39 254 345 314 300 278 276 276 271 54 11 293 279 264 257 260 270 258 259 255 255 257 260 265 261 262 304 92 101 119 70 78 43 58 34 65 79 68 47 310 301 288 323 325 327 325 324 304 277 254 246 249 254 262 269 273 274 275 272 276 279 275 306 341 323 311 297 292 295 295 296 295 296 296 292 293 294 298 296 288 281 282 287 292 296 295
199 162 166 226 242 254 281 101 109 42 334 295 253 253 260 253 246 258 258 255 250 256 262 258 263 236 187 157 120 90 82 7 50 39 52 1 79 149 227 253 259 274 305 4 4 0 359 357 347 336 337 347 359 3 350 350 352 332 310 338 328 4 1 342 328 311 301 295 295 293 292 292 290 287 287 289 291 291 292 292 292 290 285 276 275 286
142 176 221 186 256 263 256 121 128 200 246 245 313 116 210 245 245 249 248 247 246 228 233 230 220 183 213 138 156 218 113 243 117 298 86 113 305 281 255 256 244 218 50 30 35 19 358 350 23 32 46 34 4 356 343 351 349 342 5 7 0 356 337 329 316 306 302 302 298 294 292 291 289 287 285 286 287 287 286 287 286 287 287 286 284 281
167 184 211 201 221 236 136 104 249 218 241 286 78 253 261 251 244 251 257 257 266 294 285 259 229 197 201 160 155 113 63 344 357 329 336 280 264 256 253 260 261 85 50 32 15 356 346 41 44 24 14 6 358 343 351 343 346 0 358 358 348 335 325 316 309 311 310 305 301 299 298 297 297 296 297 296 293 289 284 283 287 288 289 290 289 289
208 196 196 218 202 298 262 236 250 239 262 105 252 308 254 198 229 254 282 269 257 252 247 258 265 193 157 120 74 55 51 319 333 301 272 263 234 226 265 281 93 75 43 292 102 316 48 71 60 41 6 346 345 341 340 335 357 7 341 343 335 321 318 317 314 307 308 304 305 309 308 307 305 303 304 303 303 301 298 296 293 293 294 293 291 288
192 211 215 251 209 238 228 238 245 297 300 280 282 273 242 213 210 190 217 270 168 231 6 85 323 94 105 98 83 30 352 1 338 297 283 341 40 23 159 270 126 185 199 249 99 66 93 76 49 5 6 346 0 352 358 11 9 356 341 332 322 323 315 314 309 308 308 305 305 307 309 312 313 310 307 306 306 304 305 305 303 302 304 300 297 293
204 206 208 224 235 222 245 257 266 263 261 273 219 125 51 38 82 27 116 284 259 244 227 193 191 138 118 98 77 329 358 46 326 287 305 49 46 12 350 325 290 210 102 75 53 59 65 36 21 352 26 11 6 21 28 13 3 346 330 322 319 316 312 310 303 304 303 301 307 311 315 314 311 309 308 311 309 309 308 308 306 302 305 300 298 293
353 185 196 220 261 251 244 243 236 250 254 146 186 119 15 87 55 14 58 288 249 321 294 129 122 129 121 110 292 34 54 335 264 260 248 40 338 22 304 275 264 129 113 110 97 65 38 353 347 30 36 17 20 22 16 4 350 339 323 320 319 316 312 309 306 308 308 308 312 315 316 314 313 313 317 316 313 312 307 302 300 298 298 292 289 287
167 212 130 243 235 231 242 241 245 237 248 242 183 202 198 74 41 53 325 289 29 262 145 123 132 118 203 123 227 186 223 247 265 258 279 325 310 298 272 251 251 91 62 72 65 79 17 11 48 36 28 26 29 10 4 349 347 333 322 315 314 312 308 307 310 313 312 313 316 318 315 315 320 318 313 308 305 303 297 298 301 302 302 299 295 292
130 306 190 215 224 232 233 249 271 265 239 166 181 165 147 133 78 256 256 246 208 219 238 123 168 152 175 231 228 230 236 220 228 255 290 315 324 305 300 80 115 106 82 60 32 35 36 41 52 40 36 33 19 5 351 351 341 323 316 312 313 308 307 313 318 317 317 317 317 315 314 315 314 311 308 303 300 300 297 298 299 298 294 291 290 288
115 116 300 224 225 226 224 237 240 260 224 169 264 147 153 63 256 247 231 161 160 205 236 179 172 245 217 228 219 224 238 246 266 290 306 312 299 285 200 105 70 54 56 61 51 52 39 24 22 22 18 21 15 356 351 343 325 312 311 312 307 307 318 321 318 318 317 316 313 311 309 308 306 303 299 298 298 295 291 289 289 288 289 287 287 286
200 137 221 204 215 223 207 245 247 244 16 151 199 24 273 147 230 196 186 232 176 184 195 210 194 231 203 236 237 235 252 279 278 287 295 296 288 282 71 61 65 62 45 34 42 46 35 8 5 356 350 357 357 354 343 334 314 309 311 308 309 320 322 319 317 314 312 309 307 306 305 304 301 300 299 295 293 289 289 292 291 287 284 285 283 280
222 116 232 234 168 182 215 222 221 121 230 203 137 180 234 207 211 230 153 198 213 176 196 207 220 210 213 217 242 270 272 282 297 298 298 291 292 53 37 48 50 49 44 62 75 49 37 10 351 335 337 338 341 346 337 322 312 311 310 306 318 319 316 313 311 308 305 304 302 302 301 300 300 298 295 292 291 286 286 289 287 283 281 284 282 286
203 201 199 234 198 175 193 247 198 151 192 210 176 208 218 243 224 215 211 197 187 226 203 207 228 231 194 181 238 261 286 268 262 263 268 254 271 44 36 29 49 47 65 63 56 45 35 14 344 333 321 328 333 333 324 324 315 311 306 307 320 313 312 310 309 308 305 304 303 302 301 300 298 298 295 291 289 290 289 285 286 286 283 280 283 281
249 220 220 252 250 247 255 209 232 295 270 258 209 205 219 240 250 251 240 252 229 225 213 213 208 194 185 158 211 253 238 255 273 279 274 346 42 19 38 29 26 49 58 47 37 32 21 0 340 325 315 317 331 318 325 322 320 305 302 311 312 309 307 308 310 307 305 304 302 302 304 302 300 295 291 288 285 281 283 285 288 286 287 284 280 282
233 243 248 242 250 259 249 188 236 248 253 254 251 239 233 230 240 242 241 229 227 219 218 190 170 168 166 171 193 223 241 243 261 272 297 13 26 34 34 13 43 59 43 40 28 22 4 347 326 317 316 311 319 320 319 314 302 292 299 306 305 306 306 306 305 303 304 303 304 304 302 299 300 300 297 292 290 285 285 287 285 285 286 283 283 282
269 228 245 239 247 225 251 248 250 240 245 248 239 253 259 255 249 247 236 227 218 195 168 162 130 148 145 199 210 220 239 241 238 271 318 335 353 9 14 47 45 30 34 37 12 19 344 328 313 311 312 309 314 319 316 311 304 299 300 300 304 307 308 305 304 303 303 303 303 301 302 300 298 298 297 295 292 293 291 286 284 285 283 284 283 284
231 174 246 154 202 229 252 249 250 261 269 266 258 248 243 245 248 249 251 227 144 140 142 151 154 176 171 212 192 198 214 224 166 208 265 300 321 359 44 52 48 33 359 352 353 357 326 314 309 303 307 305 312 311 309 304 299 301 303 306 308 308 306 304 303 303 300 300 301 299 300 298 296 295 295 294 292 284 285 290 288 281 277 268 264 266
243 246 242 105 195 195 219 237 223 244 256 258 247 240 243 245 247 254 237 160 165 161 165 166 186 149 152 150 158 165 196 197 162 105 212 231 27 36 29 30 10 345 337 339 334 320 307 301 307 310 306 303 309 306 302 302 303 304 303 303 303 304 303 303 304 302 299 301 301 300 299 298 295 294 294 293 294 294 285 274 284 287 287 288 285 286
225 241 237 229 226 243 240 243 229 232 246 248 258 254 234 222 200 203 187 191 191 182 172 163 167 171 177 186 154 166 172 164 172 87 73 50 3 53 50 21 346 324 317 325 318 309 307 312 312 303 299 301 307 302 304 304 303 303 302 302 302 303 300 301 300 299 298 301 298 298 299 298 297 295 292 291 291 290 291 293 283 285 289 289 291 292